Theta_e
321 322 322 322 322 323 323 324 324 324 325 325 325 326 326 327 326 320 312 324 328 352 345 320 319 317 317 315 328 327 311 309 314 318 320 334 330 338 340 333 336 338 335 337 343
321 320 319 318 320 322 322 323 323 324 324 324 324 325 326 327 317 313 330 355 352 349 319 317 313 316 313 313 322 317 309 313 321 323 325 332 328 334 333 332 333 334 338 341 342
319 318 318 318 318 319 321 322 323 323 323 323 324 326 327 325 309 314 351 356 357 340 321 318 316 314 310 310 315 318 311 319 322 326 332 331 330 336 330 326 330 330 333 337 339
318 318 317 317 318 318 319 321 321 322 322 323 324 326 328 316 303 317 357 357 353 327 318 313 314 311 308 307 312 314 320 322 323 329 330 330 334 330 330 329 336 335 337 336 337
318 317 317 317 317 317 317 320 320 321 321 323 324 327 317 305 310 320 350 341 323 320 315 313 312 309 306 308 312 311 317 321 324 324 325 331 330 329 330 334 337 338 337 337 337
317 317 317 316 317 317 317 318 320 320 321 323 325 329 312 303 317 323 320 320 321 318 315 314 313 313 309 308 307 313 315 316 320 322 323 324 326 327 329 335 334 336 335 336 338
317 316 316 316 316 316 316 318 319 319 321 323 327 326 310 309 318 317 316 314 320 319 316 315 315 311 310 308 313 312 309 311 314 319 319 323 316 317 330 333 330 333 334 336 338
316 316 316 316 316 316 316 317 318 320 322 324 328 316 302 314 317 319 315 315 317 318 316 317 315 311 308 310 309 307 308 303 312 315 317 317 306 312 331 330 327 328 332 335 337
315 315 315 315 315 315 316 317 318 321 323 326 312 307 302 320 312 315 316 314 312 311 313 321 313 305 307 301 299 302 298 302 308 315 313 311 307 312 330 329 327 327 326 328 334
315 315 315 314 314 314 315 316 317 320 322 324 322 305 307 306 311 313 314 314 310 311 311 309 305 302 299 299 293 298 297 300 301 307 310 307 307 309 328 328 327 327 326 325 326
316 314 314 314 313 314 309 308 301 299 307 297 297 305 310 311 310 311 313 311 309 307 301 303 300 297 298 300 302 300 297 299 302 306 307 306 305 309 312 327 326 326 326 325 325
315 314 313 313 313 313 305 305 305 306 300 307 304 307 308 308 304 307 311 306 304 300 301 300 297 302 304 303 301 299 298 298 302 306 304 303 303 307 308 320 327 327 328 329 328
315 313 312 313 313 306 301 303 308 306 299 306 307 307 307 308 304 305 308 305 303 299 299 297 301 306 303 300 299 297 295 296 298 302 303 302 299 303 307 312 314 323 326 331 331
314 313 312 312 303 304 304 305 309 307 297 301 303 307 304 305 301 309 309 307 303 300 300 299 304 303 299 299 298 295 300 300 301 296 293 299 291 298 303 307 311 315 318 321 328
314 313 311 312 300 308 310 308 303 307 290 306 304 309 302 301 300 303 309 307 302 302 300 300 300 300 298 301 301 299 304 303 302 295 293 296 293 297 303 304 307 310 318 320 324
313 311 311 308 303 308 309 307 307 296 292 303 304 301 300 298 300 304 304 307 306 302 299 301 303 302 301 304 304 304 301 299 296 293 290 292 294 296 305 307 308 314 322 323 323
311 310 309 310 303 310 307 307 295 291 304 302 299 299 296 295 298 301 301 299 297 293 291 298 299 301 304 298 301 299 294 289 290 289 290 290 295 299 309 316 317 320 323 320 326
308 308 308 310 307 308 309 303 291 301 301 305 302 299 298 299 297 299 298 296 297 295 292 291 295 301 304 300 298 296 295 290 286 287 289 293 292 299 316 320 322 325 325 326 327
307 304 304 307 311 307 306 295 295 300 306 305 301 298 295 300 299 297 296 296 299 299 293 291 296 305 307 304 302 296 294 296 290 288 289 293 300 308 318 319 322 324 326 327 330
304 307 309 312 311 310 304 297 301 306 308 304 298 299 295 297 298 295 295 300 301 301 299 296 295 301 306 305 305 301 300 294 291 288 287 291 295 296 311 315 319 322 325 327 330
309 310 314 310 310 307 300 299 305 310 308 302 301 299 297 300 296 294 296 303 307 303 301 299 298 298 301 298 295 298 295 292 292 291 289 288 293 303 313 317 317 320 325 328 330
308 308 314 310 304 297 299 303 305 307 307 305 304 303 301 301 299 299 301 303 309 307 301 300 296 294 296 301 300 297 294 292 290 289 289 290 293 309 317 318 317 318 325 328 328
302 307 314 310 297 297 299 303 306 305 306 304 303 304 303 300 298 301 304 309 309 306 302 301 294 292 294 297 299 297 297 292 291 290 289 288 291 309 312 313 316 318 324 326 327
308 306 307 305 300 299 299 301 302 308 305 307 305 303 302 300 301 300 302 307 308 309 318 308 293 294 293 293 296 295 298 295 292 289 289 290 294 298 308 309 313 320 324 326 326
304 302 303 303 303 302 301 301 304 302 305 307 304 304 301 298 298 299 302 303 306 310 302 300 294 295 294 297 297 298 298 298 294 293 292 295 293 305 311 313 310 320 322 323 325
301 302 302 301 302 298 298 302 303 304 303 303 303 303 303 299 299 298 299 300 298 302 297 296 294 294 293 298 298 296 298 298 297 300 298 299 303 311 313 314 314 316 317 317 318
304 304 303 300 298 298 298 302 304 305 306 308 306 302 301 302 303 300 301 301 302 301 297 296 293 291 289 293 295 291 295 298 302 303 302 299 304 312 309 310 311 311 314 314 315
Wind_Speed
11 10 10 11 11 11 11 12 13 13 13 15 16 16 16 18 17 3 3 8 4 1 5 6 3 5 4 4 4 3 5 0 3 4 4 5 4 3 4 5 2 2 2 5 17
11 10 11 11 12 11 11 12 13 13 14 15 16 16 15 16 4 4 10 5 5 1 2 4 7 5 3 2 1 4 4 6 4 6 6 6 5 8 4 2 1 3 3 18 17
12 12 11 11 12 12 12 12 13 13 14 15 15 15 14 10 5 7 8 5 5 2 3 1 2 3 4 2 0 2 4 5 4 5 10 7 3 3 9 4 8 8 13 16 16
12 12 12 11 12 12 13 13 13 13 13 14 15 15 16 3 3 1 10 7 5 3 0 2 5 6 5 5 3 3 4 4 4 5 5 3 3 5 6 5 3 13 18 17 15
12 12 12 11 12 12 12 13 13 13 13 13 14 13 4 3 9 4 4 5 4 2 3 2 4 2 3 4 4 2 2 3 5 4 4 5 6 3 8 2 12 15 17 17 16
13 12 12 11 12 12 12 13 13 13 13 12 12 11 2 2 3 5 8 4 3 3 2 1 2 0 2 2 0 4 5 4 5 5 1 5 2 3 4 10 13 17 19 17 18
13 12 11 11 11 12 13 13 14 13 12 11 10 3 0 12 2 8 5 2 2 3 3 2 3 1 1 5 3 3 4 5 5 4 5 5 5 10 4 12 16 16 15 15 16
13 12 11 11 11 12 13 14 14 13 11 8 5 1 8 4 4 8 1 3 3 3 2 5 3 2 2 3 8 3 4 5 4 5 3 8 12 6 9 12 12 14 13 14 17
14 12 11 10 11 12 13 15 15 12 7 4 1 1 9 8 2 4 4 3 2 1 3 1 4 3 5 4 6 8 1 4 8 4 3 3 9 5 9 11 11 13 13 13 12
15 12 10 10 10 11 13 14 8 7 2 3 3 2 5 0 5 2 3 1 3 3 6 8 7 4 5 7 2 6 6 3 5 5 4 3 14 7 7 11 12 12 11 13 15
15 13 10 8 8 9 8 2 4 3 0 7 5 3 4 8 3 1 2 4 3 10 3 4 6 2 3 4 5 3 3 5 5 9 3 6 8 17 7 9 9 11 13 15 19
16 13 9 6 6 5 1 3 4 3 5 6 3 7 5 3 2 2 2 3 4 2 1 7 3 2 4 4 4 4 4 7 7 5 3 3 9 13 3 9 17 15 14 17 12
15 13 8 5 3 2 2 5 4 5 2 5 5 4 5 7 3 4 5 2 3 2 2 4 4 6 2 1 1 4 5 4 6 6 4 4 9 5 5 4 6 9 10 12 16
16 12 7 3 2 1 4 2 3 5 5 3 3 5 3 3 3 3 3 5 3 4 4 5 4 2 3 5 4 3 6 4 3 4 2 3 6 6 6 4 4 3 6 6 10
17 11 5 3 1 2 1 6 4 4 5 3 4 2 2 7 2 4 2 5 7 4 6 8 2 3 4 6 5 9 2 1 2 2 2 4 4 8 7 9 9 6 7 9 9
16 10 1 2 1 6 6 3 3 7 2 2 5 5 5 1 1 2 3 5 4 4 2 8 3 4 8 4 6 2 1 5 4 3 4 3 4 7 5 8 9 6 6 4 6
19 9 6 1 3 3 4 3 7 4 3 3 4 4 3 3 2 2 6 5 5 4 3 5 4 3 3 1 3 6 7 5 7 7 5 2 3 8 8 9 6 9 10 5 8
18 7 6 5 2 6 3 7 1 1 4 2 4 4 5 5 3 3 5 4 2 5 2 1 7 4 1 4 6 3 7 7 2 1 6 3 1 5 5 9 9 6 4 7 10
5 1 2 5 9 2 6 3 5 5 3 3 3 5 1 1 2 1 4 7 8 9 5 3 4 3 5 3 3 3 4 4 7 3 2 3 3 5 5 8 8 5 8 10 11
1 1 3 3 8 4 6 4 4 5 4 2 3 3 5 3 5 5 4 4 5 11 5 5 2 3 5 3 8 7 5 5 5 1 3 5 4 6 2 4 7 6 6 6 7
0 4 4 2 1 6 3 7 6 6 2 1 1 4 2 2 3 3 4 2 3 3 5 4 4 6 4 6 2 4 4 7 6 4 5 2 7 5 7 3 5 6 2 5 7
1 4 3 1 5 1 3 5 4 5 2 2 2 3 3 3 3 1 3 3 6 5 5 0 6 3 2 4 3 2 4 5 6 4 1 3 7 2 4 2 6 7 7 6 4
3 2 3 4 3 2 5 4 4 4 4 4 3 4 5 3 4 3 3 5 7 5 5 5 2 3 5 7 4 4 1 6 6 3 3 4 7 5 6 5 2 3 6 6 8
3 3 4 4 0 5 2 5 3 3 2 4 4 4 4 5 6 3 4 5 6 4 8 8 4 6 7 5 3 3 2 3 6 4 3 6 7 5 7 8 4 2 2 4 4
4 1 2 3 3 2 1 2 3 3 2 6 4 5 4 3 3 3 3 5 6 9 5 6 3 2 2 2 0 2 3 4 5 6 7 7 6 5 6 7 4 3 5 6 7
3 2 4 2 1 2 3 3 1 1 2 3 7 3 2 6 2 4 1 1 2 6 4 3 3 2 2 2 4 4 6 7 3 3 4 3 1 3 5 3 9 7 7 7 6
2 2 2 3 2 3 2 3 2 1 6 4 7 5 6 4 5 2 3 1 1 1 3 2 7 4 5 3 2 4 5 3 3 2 3 5 2 2 6 7 6 6 5 5 5
Wind_Direction
326 325 327 328 329 328 328 329 326 325 326 324 325 327 329 326 315 142 266 221 172 87 323 324 351 319 115 155 182 93 63 151 212 157 221 179 162 122 76 113 95 96 131 151 138
324 327 325 325 327 327 328 328 325 326 327 325 326 327 329 332 337 286 244 136 241 43 10 335 321 3 45 77 199 102 113 217 209 180 191 207 183 137 117 153 258 100 70 134 142
322 321 319 321 322 323 326 326 324 326 326 325 325 326 325 325 343 252 69 156 189 178 182 253 317 33 48 355 353 191 189 179 241 205 171 204 83 128 124 222 215 172 151 149 149
319 317 315 317 317 317 320 321 322 323 323 322 323 325 322 311 217 242 95 105 139 169 72 1 10 22 26 9 332 332 275 204 202 185 150 185 131 154 184 229 181 152 157 153 164
319 314 311 313 312 312 313 315 316 316 318 319 323 329 343 5 253 325 92 91 105 18 11 22 51 65 1 295 319 223 274 234 247 203 180 135 226 195 229 236 120 140 160 167 172
320 314 310 309 307 307 308 308 310 311 313 316 324 320 6 280 256 49 8 5 73 52 335 34 11 111 247 283 236 306 291 267 255 218 212 171 206 166 245 125 141 156 175 175 181
322 316 310 306 305 304 303 304 305 305 307 310 319 321 48 234 56 330 337 318 229 179 321 241 150 43 311 316 344 292 307 326 254 221 213 136 284 227 169 151 155 174 180 182 187
325 318 310 304 303 301 300 301 300 298 297 293 307 301 246 261 319 303 234 309 252 232 209 255 242 222 40 329 1 34 46 7 286 158 249 124 261 262 162 159 171 179 185 192 194
330 319 310 303 302 302 301 300 295 291 275 275 316 105 268 316 293 288 174 234 295 52 242 153 90 80 16 44 16 7 316 309 314 222 101 168 264 288 165 174 179 191 191 199 206
337 327 312 303 303 306 301 288 287 306 195 199 265 1 281 88 285 255 215 141 64 356 21 36 43 56 40 53 328 319 339 313 258 287 166 205 271 255 183 186 190 193 193 203 207
341 333 317 306 307 314 338 83 31 358 284 189 198 248 299 294 273 286 138 90 62 57 40 8 46 239 264 207 215 244 212 252 258 267 187 244 269 276 193 212 200 195 196 204 213
343 339 330 308 299 313 312 149 199 201 310 216 246 287 266 220 311 287 91 120 83 106 35 14 274 265 235 212 205 213 249 277 293 254 121 313 270 266 208 220 214 202 202 210 208
341 338 330 306 296 320 203 228 32 25 107 297 189 207 232 138 214 231 112 113 105 109 126 161 240 309 353 0 154 205 196 246 230 339 13 357 307 319 321 294 245 226 220 215 207
341 336 325 308 320 195 248 257 329 187 71 265 253 273 136 189 312 206 167 123 37 224 170 251 285 260 328 289 151 301 209 244 275 58 272 52 277 307 337 14 31 180 218 241 229
338 337 319 268 222 178 228 334 125 69 82 160 203 93 125 144 163 220 196 62 168 194 102 250 241 295 315 237 164 229 0 72 34 114 61 1 67 278 353 355 345 347 202 208 201
336 328 242 172 264 248 312 324 54 41 61 183 133 153 113 7 27 77 97 67 148 160 300 240 272 226 218 237 185 72 64 46 59 72 34 302 110 306 339 297 299 327 330 318 168
329 282 191 208 216 318 305 55 39 112 341 187 175 159 129 151 242 161 154 172 166 102 308 318 248 267 222 251 29 75 52 351 6 11 228 352 68 242 295 317 304 318 308 64 131
342 154 227 233 314 348 75 49 109 243 243 26 111 90 154 157 231 141 107 168 175 91 98 109 345 16 20 208 150 87 129 146 215 252 277 303 17 270 318 320 314 322 309 70 78
342 240 269 256 199 358 75 74 223 207 299 352 84 93 248 204 138 152 164 185 205 167 178 157 277 312 32 5 101 163 55 165 103 7 46 266 308 324 349 336 341 20 69 84 98
258 33 270 103 156 91 75 245 254 211 330 2 162 134 171 224 149 155 186 194 222 187 156 212 323 7 298 23 29 103 158 44 12 161 289 306 269 229 203 283 318 28 72 104 144
17 66 304 77 166 51 154 234 278 260 239 213 195 116 165 137 146 191 203 22 344 33 141 131 116 293 29 27 322 357 23 61 111 120 171 227 270 213 186 245 326 337 49 169 191
103 68 325 36 57 22 176 208 276 286 256 268 103 87 106 78 73 176 140 293 328 154 128 83 132 114 126 296 288 122 129 105 112 262 43 140 278 318 166 337 330 315 343 323 234
79 114 347 73 138 267 284 276 252 321 322 6 39 61 55 70 96 57 8 300 355 72 133 183 22 54 8 354 348 68 123 116 112 97 201 142 264 68 29 343 319 302 349 346 329
87 89 349 51 113 137 346 285 298 305 43 53 45 56 82 53 19 90 18 334 0 68 62 90 105 148 191 211 162 171 205 93 112 112 193 231 278 345 348 283 229 126 41 339 332
27 216 211 204 287 149 117 291 308 10 18 26 51 30 135 95 35 47 357 350 6 358 48 83 133 159 207 219 240 235 222 184 181 186 165 241 213 303 316 273 237 103 31 1 2
83 68 359 118 356 145 134 212 210 129 39 15 94 18 121 125 172 172 135 9 261 350 54 17 187 134 291 193 196 254 237 248 245 120 278 271 197 327 339 63 62 51 49 23 1
332 336 107 308 61 100 231 306 343 128 38 90 139 91 65 154 182 255 220 244 300 185 164 121 135 116 241 16 7 308 254 199 148 97 193 201 183 32 26 43 35 35 38 30 348